TimeGMT,TemperatureF,Dew PointF,Humidity,Sea Level PressureIn,VisibilityMPH,Wind Direction,Wind SpeedMPH,Gust SpeedMPH,PrecipitationIn,Events,Conditions,WindDirDegrees,DateUTC
12:00 AM,42,32,57,29.99,16,SE,17.9,,,,Scattered Clouds,140,2013-02-18 00:00:00
12:00 AM,42.8,32.0,66,29.98,6.2,SE,18.4,-,N/A,,Partly Cloudy,140,2013-02-18 00:00:00
12:30 AM,42.8,32.0,66,29.98,6.2,SE,19.6,-,N/A,,Partly Cloudy,140,2013-02-18 00:30:00
1:00 AM,42.8,32.0,66,29.98,6.2,SE,19.6,-,N/A,,Partly Cloudy,140,2013-02-18 01:00:00
1:30 AM,42.8,32.0,66,29.98,6.2,SE,18.4,-,N/A,,Partly Cloudy,140,2013-02-18 01:30:00
2:00 AM,42.8,30.2,61,29.98,6.2,SE,15.0,-,N/A,,Partly Cloudy,140,2013-02-18 02:00:00
2:30 AM,41.0,32.0,70,29.98,6.2,SE,13.8,-,N/A,,Partly Cloudy,130,2013-02-18 02:30:00
3:00 AM,41.0,32.0,70,29.98,6.2,SE,15.0,-,N/A,,Partly Cloudy,130,2013-02-18 03:00:00
3:30 AM,41.0,32.0,70,29.98,6.2,SE,16.1,-,N/A,,Partly Cloudy,130,2013-02-18 03:30:00
4:00 AM,41.0,33.8,76,29.98,6.2,SE,17.3,-,N/A,,Scattered Clouds,130,2013-02-18 04:00:00
4:30 AM,42.8,33.8,70,29.98,6.2,SE,15.0,-,N/A,,Mostly Cloudy,130,2013-02-18 04:30:00
5:00 AM,41.0,33.8,76,29.95,6.2,SE,16.1,-,N/A,,Mostly Cloudy,130,2013-02-18 05:00:00
5:30 AM,42.8,35.6,76,29.98,6.2,SE,16.1,-,N/A,,Mostly Cloudy,130,2013-02-18 05:30:00
6:00 AM,42,35,69,29.99,16,SE,13.4,,,,Mostly Cloudy,130,2013-02-18 06:00:00
6:00 AM,42.8,35.6,76,29.98,6.2,SE,13.8,-,N/A,,Mostly Cloudy,130,2013-02-18 06:00:00
6:30 AM,41.0,35.6,81,29.98,6.2,SE,16.1,-,N/A,,Mostly Cloudy,130,2013-02-18 06:30:00
7:00 AM,41.0,35.6,81,29.98,6.2,ESE,15.0,-,N/A,,Mostly Cloudy,120,2013-02-18 07:00:00
7:30 AM,41.0,35.6,81,29.98,6.2,SE,15.0,-,N/A,,Mostly Cloudy,130,2013-02-18 07:30:00
8:00 AM,41.0,35.6,81,30.01,6.2,SE,16.1,-,N/A,,Mostly Cloudy,130,2013-02-18 08:00:00
8:30 AM,41.0,33.8,76,30.01,6.2,SE,13.8,-,N/A,,Mostly Cloudy,140,2013-02-18 08:30:00
9:00 AM,41.0,33.8,76,30.01,6.2,SE,13.8,-,N/A,,Mostly Cloudy,140,2013-02-18 09:00:00
9:30 AM,41.0,33.8,76,30.01,6.2,SE,13.8,-,N/A,,Mostly Cloudy,140,2013-02-18 09:30:00
10:00 AM,41.0,33.8,76,30.01,6.2,SE,15.0,-,N/A,,Mostly Cloudy,140,2013-02-18 10:00:00
10:30 AM,41.0,33.8,76,30.01,6.2,SE,16.1,-,N/A,,Mostly Cloudy,140,2013-02-18 10:30:00
11:00 AM,42.8,33.8,70,30.01,6.2,SE,17.3,-,N/A,,Scattered Clouds,130,2013-02-18 11:00:00
11:30 AM,42.8,35.6,76,30.01,6.2,SE,16.1,-,N/A,,Scattered Clouds,130,2013-02-18 11:30:00
12:00 PM,44,35,60,30.04,12,SE,17.9,,,,Partly Cloudy,130,2013-02-18 12:00:00
12:00 PM,44.6,35.6,71,30.01,6.2,SE,17.3,-,N/A,,Scattered Clouds,130,2013-02-18 12:00:00
12:30 PM,44.6,33.8,66,30.01,6.2,SE,18.4,-,N/A,,Partly Cloudy,130,2013-02-18 12:30:00
1:00 PM,44.6,33.8,66,30.01,6.2,SE,19.6,-,N/A,,Partly Cloudy,130,2013-02-18 13:00:00
1:30 PM,44.6,35.6,71,30.01,6.2,ESE,18.4,-,N/A,,Partly Cloudy,120,2013-02-18 13:30:00
2:00 PM,44.6,33.8,66,30.01,6.2,ESE,18.4,-,N/A,,Partly Cloudy,120,2013-02-18 14:00:00
2:30 PM,44.6,33.8,66,30.01,6.2,ESE,17.3,-,N/A,,Partly Cloudy,120,2013-02-18 14:30:00
3:00 PM,44.6,35.6,71,30.01,6.2,SE,20.7,-,N/A,,Partly Cloudy,130,2013-02-18 15:00:00
3:30 PM,44.6,33.8,66,30.01,6.2,SE,20.7,-,N/A,,Partly Cloudy,130,2013-02-18 15:30:00
4:00 PM,44.6,33.8,66,30.01,6.2,SE,17.3,-,N/A,,Scattered Clouds,130,2013-02-18 16:00:00
4:30 PM,44.6,33.8,66,30.01,6.2,SE,17.3,-,N/A,,Scattered Clouds,130,2013-02-18 16:30:00
5:00 PM,44.6,33.8,66,30.01,6.2,SE,13.8,-,N/A,,Mostly Cloudy,130,2013-02-18 17:00:00
5:30 PM,42.8,35.6,76,30.01,6.2,SE,11.5,-,N/A,,Mostly Cloudy,140,2013-02-18 17:30:00
6:00 PM,42,36,72,30.05,25,SE,6.7,,,,Scattered Clouds,140,2013-02-18 18:00:00
6:00 PM,42.8,35.6,76,30.04,6.2,SE,5.8,-,N/A,,Mostly Cloudy,140,2013-02-18 18:00:00
6:30 PM,41.0,35.6,81,30.04,6.2,ESE,6.9,-,N/A,,Mostly Cloudy,120,2013-02-18 18:30:00
7:00 PM,42.8,35.6,76,30.04,6.2,SE,4.6,-,N/A,,Mostly Cloudy,140,2013-02-18 19:00:00
7:30 PM,42.8,35.6,76,30.04,6.2,SE,10.4,-,N/A,,Mostly Cloudy,140,2013-02-18 19:30:00
8:00 PM,42.8,37.4,81,30.04,6.2,SE,9.2,-,N/A,,Scattered Clouds,130,2013-02-18 20:00:00
8:30 PM,42.8,37.4,81,30.04,6.2,SE,12.7,-,N/A,,Scattered Clouds,130,2013-02-18 20:30:00
9:00 PM,42.8,37.4,81,30.04,6.2,SE,12.7,-,N/A,,Scattered Clouds,130,2013-02-18 21:00:00
9:30 PM,41.0,37.4,87,30.06,6.2,SE,5.8,-,N/A,,Scattered Clouds,130,2013-02-18 21:30:00
10:00 PM,41.0,37.4,87,30.06,6.2,SE,6.9,-,N/A,,Partly Cloudy,140,2013-02-18 22:00:00
10:30 PM,41.0,37.4,87,30.06,6.2,SE,8.1,-,N/A,,Partly Cloudy,130,2013-02-18 22:30:00
11:00 PM,41.0,37.4,87,30.06,6.2,SE,10.4,-,N/A,,Partly Cloudy,140,2013-02-18 23:00:00
11:30 PM,41.0,37.4,87,30.06,6.2,SE,9.2,-,N/A,,Partly Cloudy,130,2013-02-18 23:30:00